User: anonymous   Login
Location: Chomutov
(50.4500°N, 13.4333°E)
Time: 18:17:55
(UTC+02:00)
Language:

MOZHAYETS 4 - Orbit

View from above orbital plane
View from above orbital plane
View from above satellite
View from above satellite

Ground track
Ground track

The orbit data is extracted from the following two-line orbital elements,

1 27939U 03042A   21268.44123450  .00000281  00000-0  58857-4 0  9999
2 27939  98.1558  44.9187 0012134 329.5386  30.5114 14.67025317962184
Epoch (UTC): 25 September 2021 10:35:22
Eccentricity: 0.0012134
inclination: 98.1558°
perigee height: 662 km
apogee height: 679 km
right ascension of ascending node: 44.9187°
argument of perigee: 329.5386°
revolutions per day: 14.67025317
mean anomaly at epoch: 30.5114°
orbit number at epoch: 96218

The dashed part of the orbit path shows where the satellite is in the earth's shadow,  

DLR